Location: Pinawa
(50.1500°N, 95.8830°W)
Time: 22:22:36
(UTC-05:00)

ISS - All Passes

Search period start: 03 August 2015 00:00
Search period end: 13 August 2015 00:00
Orbit: 401 x 403 km, 51.6° (Epoch: 03 August)

Date Brightness Start Highest point End Pass type
(mag) Time Alt. Az. Time Alt. Az. Time Alt. Az.
03 Aug - 01:03:45 10° WNW 01:07:01 69° N 01:10:17 10° E visible
03 Aug - 02:40:14 10° WNW 02:43:25 49° SSW 02:46:35 10° SE visible
03 Aug - 04:18:17 10° WSW 04:19:16 11° SW 04:20:11 10° SSW night (unlit)
03 Aug - 20:58:53 10° SSW 21:01:20 20° SE 21:03:49 10° E daylight
03 Aug - 22:34:09 10° WSW 22:37:25 77° SSE 22:40:41 10° ENE visible
04 Aug - 00:10:41 10° W 00:13:56 64° N 00:17:11 10° E visible
04 Aug - 01:47:11 10° WNW 01:50:26 72° SSW 01:53:42 10° ESE visible
04 Aug - 03:24:09 10° W 03:26:29 18° SW 03:28:46 10° S night (unlit)
04 Aug - 20:07:07 10° SSE 20:08:31 12° SE 20:10:00 10° ESE daylight
04 Aug - 21:41:14 10° SW 21:44:24 53° SSE 21:47:37 10° ENE visible
04 Aug - 23:17:35 10° W 23:20:50 67° N 23:24:06 10° ENE visible
05 Aug - 00:54:08 10° WNW 00:57:25 86° NNE 01:00:41 10° ESE visible
05 Aug - 02:30:45 10° W 02:33:37 28° SSW 02:36:28 10° SSE night (unlit)
05 Aug - 20:48:27 10° SW 20:51:27 35° SSE 20:54:29 10° E daylight
05 Aug - 22:24:29 10° W 22:27:45 77° NNW 22:31:02 10° ENE visible
06 Aug - 00:01:04 10° WNW 00:04:19 71° N 00:07:35 10° E visible
06 Aug - 01:37:34 10° W 01:40:41 43° SSW 01:43:48 10° SE visible
06 Aug - 19:55:57 10° SSW 19:58:33 22° SE 20:01:12 10° E daylight
06 Aug - 21:31:25 10° WSW 21:34:40 83° SSE 21:37:57 10° ENE visible
06 Aug - 23:07:58 10° W 23:11:13 65° N 23:14:28 10° E visible
07 Aug - 00:44:27 10° WNW 00:47:42 65° SSW 00:50:56 10° ESE visible
07 Aug - 02:21:35 10° W 02:23:41 16° SW 02:25:44 10° S night (unlit)
07 Aug - 19:03:55 10° S 19:05:41 14° SE 19:07:32 10° ESE daylight
07 Aug - 20:38:25 10° WSW 20:41:38 59° SSE 20:44:51 10° ENE daylight
07 Aug - 22:14:50 10° W 22:18:05 66° N 22:21:20 10° E visible
07 Aug - 23:51:22 10° WNW 23:54:38 89° SW 23:57:54 10° ESE visible
08 Aug - 01:28:02 10° W 01:30:48 25° SW 01:33:32 10° SSE visible
08 Aug - 19:45:34 10° SW 19:48:37 39° SSE 19:51:42 10° E daylight
08 Aug - 21:21:41 10° W 21:24:57 74° N 21:28:13 10° ENE daylight
08 Aug - 22:58:15 10° WNW 23:01:32 74° N 23:04:48 10° E visible
09 Aug - 00:34:46 10° W 00:37:51 39° SSW 00:40:54 10° SE visible
09 Aug - 18:52:56 10° SSW 18:55:40 25° SE 18:58:26 10° E daylight
09 Aug - 20:28:34 10° WSW 20:31:50 89° S 20:35:07 10° ENE daylight
09 Aug - 22:05:08 10° W 22:08:23 66° N 22:11:38 10° E visible
09 Aug - 23:41:36 10° WNW 23:44:50 59° SSW 23:48:03 10° ESE visible
10 Aug - 01:18:57 10° WSW 01:20:46 14° SW 01:22:32 10° S visible
10 Aug - 18:00:41 10° S 18:02:45 16° SE 18:04:52 10° E daylight
10 Aug - 19:35:30 10° WSW 19:38:44 66° SSE 19:41:59 10° ENE daylight
10 Aug - 21:11:58 10° W 21:15:13 65° N 21:18:28 10° E daylight
10 Aug - 22:48:28 10° WNW 22:51:45 83° SSW 22:55:01 10° ESE visible
11 Aug - 00:25:14 10° W 00:27:52 22° SW 00:30:28 10° SSE visible
11 Aug - 18:42:34 10° SW 18:45:41 44° SSE 18:48:49 10° E daylight
11 Aug - 20:18:47 10° W 20:22:02 71° N 20:25:19 10° ENE daylight
11 Aug - 21:55:21 10° WNW 21:58:37 78° N 22:01:53 10° E visible
11 Aug - 23:31:53 10° W 23:34:54 35° SSW 23:37:54 10° SE visible
12 Aug - 17:49:50 10° SSW 17:52:41 28° SSE 17:55:33 10° E daylight
12 Aug - 19:25:37 10° WSW 19:28:53 85° NNW 19:32:10 10° ENE daylight
12 Aug - 21:02:11 10° WNW 21:05:26 67° N 21:08:42 10° E daylight
12 Aug - 22:38:40 10° WNW 22:41:52 53° SSW 22:45:03 10° SE visible
